Le nostre stazioni meteo in Italia

Pubblicità
Il mio iltempo24.it
Treviso/Istrana, Italia (16098): Temperatura & dewpoint: 08.11.2019 23:00:00 - 14.11.2019 23:00:00 (CET)Treviso/Istrana, Italia (16098): velocità del vento: 08.11.2019 23:00:00 - 14.11.2019 23:00:00 (CET)Treviso/Istrana, Italia (16098): direzione del vento: 08.11.2019 23:00:00 - 14.11.2019 23:00:00 (CET)Treviso/Istrana, Italia (16098): reduced air pressure: 08.11.2019 23:00:00 - 14.11.2019 23:00:00 (CET)Treviso/Istrana, Italia (16098): visibility: 08.11.2019 23:00:00 - 14.11.2019 23:00:00 (CET)
Data & Tempo tt [°C] td [°C] ff [km/h] ff [kn] dd ppp [hPa] vv [km]
14.11.2019 23:00:00 9,2 7,2 16 9 ENE 1008,3 15
14.11.2019 22:00:00 9,8 7,7 21 11 ENE 1008,3 20
14.11.2019 21:00:00 9,6 8,0 18 10 NE 1008,4 30
14.11.2019 20:00:00 10,0 7,2 16 9 NE 1008,7 30
14.11.2019 19:00:00 10,0 7,8 11 6 N 1008,4 30
14.11.2019 18:00:00 10,2 7,8 9 5 N 1008,4 30
14.11.2019 17:00:00 10,6 7,3 11 6 NNE 1008,1 30
14.11.2019 16:00:00 12,6 7,3 9 5 NE 1008,3 35
14.11.2019 15:00:00 13,0 5,7 13 7 ENE 1008,5 35
14.11.2019 14:00:00 13,0 6,1 21 11 ENE 1008,5 35
14.11.2019 13:00:00 12,6 6,7 16 9 ENE 1008,9 35
14.11.2019 12:00:00 12,4 6,9 15 8 N 1010,0 35
14.11.2019 11:00:00 11,8 6,1 15 8 NE 1010,0 35
14.11.2019 10:00:00 9,8 6,2 9 5 NNO 1010,1 35
14.11.2019 09:00:00 7,2 4,9 9 5 NNO 1009,9 35
14.11.2019 08:00:00 4,2 2,7 9 5 NNO 1009,4 40
14.11.2019 07:00:00 5,0 2,9 9 5 NNO 1009,0 30
14.11.2019 06:00:00 5,0 2,7 9 5 NNO 1008,7 15
14.11.2019 05:00:00 5,6 4,2 9 5 N 1009,1 15
14.11.2019 04:00:00 5,0 3,7 9 5 N 1009,2 15
14.11.2019 03:00:00 5,0 3,5 9 5 N 1008,3 10
14.11.2019 02:00:00 5,6 4,1 9 5 NNO 1008,2 12
14.11.2019 01:00:00 5,2 3,9 9 5 NNE 1007,6 10
14.11.2019 00:00:00 5,2 3,7 5 3 NNE 1006,8 10
13.11.2019 23:00:00 6,0 4,5 9 5 NNO 1006,2 12
13.11.2019 22:00:00 6,2 4,7 5 3 N 1006,1 10
13.11.2019 21:00:00 6,8 5,7 5 3 ENE 1005,4 10
13.11.2019 20:00:00 7,8 6,3 8 4 NE 1004,0 25
13.11.2019 19:00:00 8,0 6,5 4 2 ENE 1003,2 20
13.11.2019 18:00:00 9,0 7,4 2 1 S 1002,1 25
13.11.2019 17:00:00 11,0 9,4 4 2 OSO 1000,4 25
13.11.2019 16:00:00 11,0 8,0 8 4 OSO 999,7 25
13.11.2019 15:00:00 11,4 9,8 9 5 NO 998,7 20
13.11.2019 14:00:00 10,6 9,0 9 5 N 997,7 20
13.11.2019 13:00:00 10,8 8,5 13 7 NNO 997,1 12
13.11.2019 12:00:00 10,0 8,4 18 10 NNO 996,6 8
13.11.2019 11:00:00 8,6 7,2 15 8 N 996,6 2,0
13.11.2019 10:00:00 8,8 7,4 9 5 ONO 996,0 1,6
13.11.2019 09:00:00 9,8 8,4 16 9 O 995,9 4,0
13.11.2019 08:00:00 10,6 9,5 4 2 NE 995,4 10
13.11.2019 07:00:00 10,6 9,5 0 0 N 995,3 6
13.11.2019 06:00:00 10,0 9,2 5 3 NNE 995,1 3,0
13.11.2019 05:00:00 10,0 9,2 11 6 NNE 995,5 3,0
13.11.2019 04:00:00 10,4 9,3 0 0 N 995,7 3,0
13.11.2019 03:00:00 10,4 9,3 11 6 NNE 996,6 4,0
13.11.2019 02:00:00 10,4 9,2 9 5 NNE 996,5 4,5
13.11.2019 01:00:00 10,6 9,4 5 3 NE 996,8 4,5
13.11.2019 00:00:00 11,0 9,8 8 4 ESE 995,7 7
12.11.2019 23:00:00 11,6 10,0 55 30 N 990,5 3,5
12.11.2019 22:00:00 11,0 9,4 52 28 N 992,7 6
12.11.2019 21:00:00 10,4 9,3 21 11 N 995,3 4,0
12.11.2019 20:00:00 10,6 9,4 18 10 NNE 995,9 4,0
12.11.2019 19:00:00 11,0 10,4 28 15 NNE 996,4 7
12.11.2019 18:00:00 11,8 10,4 5 3 N 996,5 12
12.11.2019 17:00:00 11,8 9,5 15 8 N 996,9 12
12.11.2019 16:00:00 12,0 10,6 18 10 NNE 998,4 12
12.11.2019 15:00:00 12,0 10,6 16 9 NE 999,2 30
12.11.2019 14:00:00 12,4 11,0 18 10 NNE 1000,0 20
12.11.2019 13:00:00 11,6 10,5 18 10 NNE 1001,4 7
12.11.2019 12:00:00 11,8 10,5 16 9 N 1003,2 5
12.11.2019 11:00:00 11,2 10,1 24 13 NNE 1002,4 4,5
12.11.2019 10:00:00 11,0 9,9 22 12 NNE 1003,7 3,5
12.11.2019 09:00:00 10,8 10,2 28 15 NNE 1004,2 4,5
12.11.2019 08:00:00 10,6 9,4 18 10 NNE 1004,1 7
12.11.2019 07:00:00 11,0 9,8 15 8 NNE 1004,1 5
12.11.2019 06:00:00 10,4 9,3 13 7 N 1005,1 3,0
12.11.2019 05:00:00 10,4 9,0 18 10 N 1005,1 3,0
12.11.2019 04:00:00 11,2 10,0 18 10 NNE 1006,1 3,0
12.11.2019 03:00:00 11,2 10,0 15 8 N 1007,6 3,0
12.11.2019 02:00:00 11,0 9,7 13 7 N 1009,1 3,0
12.11.2019 01:00:00 11,0 9,7 15 8 N 1009,1 6
12.11.2019 00:00:00 11,0 10,1 15 8 N 1009,9 10
11.11.2019 23:00:00 10,4 9,2 15 8 N 1009,9 10
11.11.2019 22:00:00 10,4 9,0 13 7 NNE 1010,2 10
11.11.2019 21:00:00 10,4 8,8 11 6 N 1010,8 10
11.11.2019 20:00:00 9,8 8,2 11 6 N 1011,5 10
11.11.2019 19:00:00 9,4 8,5 8 4 N 1012,0 8
11.11.2019 18:00:00 9,0 8,1 9 5 NNO 1012,2 4,0
11.11.2019 17:00:00 8,6 7,5 13 7 N 1012,6 3,0
11.11.2019 16:00:00 9,4 8,5 11 6 N 1012,7 5
11.11.2019 15:00:00 9,8 9,7 13 7 NE 1013,3 6
11.11.2019 14:00:00 11,0 8,4 15 8 NE 1013,7 12
11.11.2019 13:00:00 11,4 7,7 15 8 NNE 1014,1 40
11.11.2019 12:00:00 12,4 8,1 0 0 N 1014,9 15
11.11.2019 11:00:00 10,6 7,3 9 5 NNE 1015,3 50
11.11.2019 10:00:00 10,0 6,9 8 4 N 1015,5 50
11.11.2019 09:00:00 9,0 6,6 11 6 N 1014,8 50
11.11.2019 08:00:00 7,8 7,0 8 4 N 1015,6 35
11.11.2019 07:00:00 7,2 6,5 8 4 N 1015,6 30
11.11.2019 06:00:00 6,8 6,2 9 5 N 1015,7 20
11.11.2019 05:00:00 6,2 5,5 11 6 N 1015,9 20
11.11.2019 04:00:00 5,6 5,0 9 5 NNO 1015,9 25
11.11.2019 03:00:00 6,4 5,8 9 5 N 1015,7 25
11.11.2019 02:00:00 6,6 5,7 8 4 NNO 1015,9 25
11.11.2019 01:00:00 7,0 6,0 0 0 N 1015,7 25
11.11.2019 00:00:00 6,6 5,7 8 4 N 1015,5 20
10.11.2019 23:00:00 6,6 6,0 0 0 N 1015,2 20
10.11.2019 22:00:00 7,2 6,3 5 3 NNO 1014,6 20
10.11.2019 21:00:00 7,6 7,0 8 4 NNE 1013,8 20
10.11.2019 20:00:00 8,4 6,5 0 0 N 1013,2 30
10.11.2019 19:00:00 10,0 8,1 0 0 N 1011,8 30
10.11.2019 18:00:00 11,4 7,7 0 0 N 1010,1 30
10.11.2019 17:00:00 13,0 7,2 0 0 N 1009,9 30
10.11.2019 16:00:00 14,2 7,0 0 0 N 1009,1 40
10.11.2019 15:00:00 14,2 6,3 0 0 N 1008,8 40
10.11.2019 14:00:00 14,4 6,7 0 0 N 1009,0 40
10.11.2019 13:00:00 15,2 7,5 8 4 S 1008,8 50
10.11.2019 12:00:00 12,8 5,9 0 0 N 1008,5 50
10.11.2019 11:00:00 12,0 6,1 0 0 N 1008,6 40
10.11.2019 10:00:00 11,0 6,7 8 4 ONO 1008,5 30
10.11.2019 09:00:00 9,2 5,9 9 5 O 1008,6 30
10.11.2019 08:00:00 7,8 5,1 11 6 ONO 1008,9 50
10.11.2019 07:00:00 7,4 5,2 5 3 ONO 1008,7 50
10.11.2019 06:00:00 7,4 5,2 11 6 NNO 1008,7 35
10.11.2019 05:00:00 7,4 5,4 11 6 NNO 1008,7 35
10.11.2019 04:00:00 6,8 5,1 11 6 ONO 1009,3 35
10.11.2019 03:00:00 6,8 5,1 9 5 NO 1009,5 35
10.11.2019 02:00:00 7,0 5,8 4 2 ONO 1009,8 35
10.11.2019 01:00:00 7,0 6,0 4 2 NO 1009,8 35
10.11.2019 00:00:00 7,0 6,0 8 4 NO 1009,8 30
09.11.2019 23:00:00 7,0 5,6 8 4 NNO 1009,9 30
09.11.2019 22:00:00 7,2 6,3 5 3 NNO 1010,1 25
09.11.2019 21:00:00 7,4 6,2 8 4 N 1010,3 25
09.11.2019 20:00:00 8,2 7,0 8 4 N 1010,4 20
09.11.2019 19:00:00 8,8 7,7 11 6 N 1010,4 20
09.11.2019 18:00:00 8,2 7,3 9 5 NNE 1010,3 15
09.11.2019 17:00:00 10,6 9,5 11 6 NE 1009,6 25
09.11.2019 16:00:00 12,4 9,0 9 5 NE 1009,4 25
09.11.2019 15:00:00 13,8 8,6 0 0 N 1009,2 20
09.11.2019 14:00:00 14,4 9,6 0 0 N 1009,2 20
09.11.2019 13:00:00 13,6 9,7 5 3 SE 1009,0 20
09.11.2019 12:00:00 12,8 8,9 0 0 N 1009,0 20
09.11.2019 11:00:00 13,2 9,5 5 3 ESE 1009,1 20
09.11.2019 10:00:00 10,6 8,9 0 0 N 1008,6 20
09.11.2019 09:00:00 10,2 8,5 5 3 S 1008,2 20
09.11.2019 08:00:00 9,0 7,4 0 0 N 1006,1 12
09.11.2019 07:00:00 9,0 7,4 4 2 OSO 1006,0 6
09.11.2019 06:00:00 9,0 7,4 9 5 O 1005,7 3,0
09.11.2019 05:00:00 9,6 8,0 13 7 O 1005,0 3,0
09.11.2019 04:00:00 9,4 7,8 13 7 O 1005,0 4,0
09.11.2019 03:00:00 10,0 8,4 0 0 N 1005,0 6
09.11.2019 02:00:00 10,0 8,4 4 2 N 1005,7 6
09.11.2019 01:00:00 10,0 8,4 9 5 ENE 1005,8 7
09.11.2019 00:00:00 10,0 8,8 11 6 NE 1005,7 8
08.11.2019 23:00:00 10,4 9,2 8 4 NE 1005,3 8

tt = Temperatura
td = dewpoint
ff = velocità del vento
dd = direzione del vento
ppp = reduced air pressure
vv = visibility

Stazioni seguenti

WeatherPro
AMSI
MeteoEarth